Regional Weather Roundup
Issued by NWS

Home | Current Version | Previous Version | Graphics & Text | Print | Product List | Glossary On
Versions: 1 2 3 4 5 6 7 8 9 10 11 12 13 14 15 16 17 18 19 20 21 22 23 24 25 26 27 28 29 30 31 32 33 34 35 36 37 38 39 40 41 42 43 44 45 46 47 48 49 50
000
ASUS43 KMKX 272200
RWRWI

WISCONSIN REGIONAL WEATHER ROUNDUP
NATIONAL WEATHER SERVICE MILWAUKEE/SULLIVAN WI
500 PM CDT FRI MAY 27 2016

NOTE: "FAIR" INDICATES FEW OR NO CLOUDS BELOW 12,000 FEET WITH NO
SIGNIFICANT WEATHER AND/OR OBSTRUCTIONS TO VISIBILITY.

WIZ001-002-006>008-014>016-023>028-272300-
NORTHWEST WISCONSIN

CITY           SKY/WX    TMP DP  RH WIND       PRES   REMARKS
SUPERIOR ARPT  LGT RAIN  45  45  99 N5        29.87F
ASHLAND        LGT RAIN  50  49  96 NE12      29.87F FOG
HAYWARD        LGT RAIN  64  61  90 NE8       29.80F
SIREN          DRIZZLE   63  60  91 NE8       29.79F
CUMBERLAND     LGT RAIN  63  61  94 NE9       29.78F
RICE LAKE      HVY RAIN  64  61  91 NE8       29.79F
CHETEK         HVY RAIN  64  63  98 N6        29.78S
LADYSMITH      CLOUDY    65  62  89 NE7       29.80F
EAU CLAIRE     NOT AVBL
MENOMONIE      LGT RAIN  65  65  99 N9        29.74F
NEW RICHMOND   CLOUDY    67  64  90 E6        29.77S
OSCEOLA        CLOUDY    66  66 100 NE6       29.79S
$$

WIZ003>005-009-010-017-018-272300-
NORTH CENTRAL WISCONSIN

CITY           SKY/WX    TMP DP  RH WIND       PRES   REMARKS
MANITOWISH WTR NOT AVBL
ARBOR VITAE    LGT RAIN  72  65  79 SE5       29.84S
WOODRUFF       LGT RAIN  72  65  79 SE5       29.84S
RHINELANDER    LGT RAIN  71  57  61 SE13      29.84F
EAGLE RIVER      N/A     71  57  60 SE10G16   29.84F
LAND O LAKES   CLOUDY    72  58  62 SE9G16    29.86F
PHILLIPS       DRIZZLE   65  62  90 NE7       29.81F
TOMAHAWK       CLOUDY    70  60  71 SE5       29.83F
MEDFORD        CLOUDY    70  63  78 SE6       29.79F
MERRILL        CLOUDY    70  62  75 SE9       29.83F
$$

WIZ029-030-035-036-043>047-272300-
CENTRAL WISCONSIN

CITY           SKY/WX    TMP DP  RH WIND       PRES   REMARKS
WAUSAU         CLOUDY    73  62  68 E15       29.79F
MOSINEE        PTSUNNY   70  64  83 E8        29.82F
MARSHFIELD     CLOUDY    73  63  70 E6        29.77F
STEVENS POINT  PTSUNNY   70  64  80 E8        29.81F
WAUPACA        CLOUDY    74  69  83 E6        29.82S
WAUTOMA        RAIN      70  68  93 SW6       29.81R
WISC RAPIDS    CLOUDY    72  65  78 SE13      29.80F
CAMP DOUGLAS   CLOUDY    72  72 100 SE9       29.76F
$$

WIZ011>013-019>022-031-037>040-048>050-272300-
NORTHEAST WISCONSIN

CITY           SKY/WX    TMP DP  RH WIND       PRES   REMARKS
ANTIGO         PTSUNNY   66  63  89 SE15      29.85F
SHAWANO        CLOUDY    71  65  83 E8        29.84F
OCONTO         CLOUDY   N/A N/A N/A E7        29.84F
STURGEON BAY   NOT AVBL
GREEN BAY      PTSUNNY   70  66  87 NE6       29.83S FOG
MANITOWOC      CLOUDY    59  57  94 SE7       29.86F FOG
APPLETON       CLOUDY    73  64  73 E8        29.82R
CLINTONVILLE   PTSUNNY   70  64  83 E7        29.82F
OSHKOSH        PTSUNNY   70  66  87 E6        29.81F
$$

WIZ032>034-041-042-053>061-272300-
SOUTHWEST WISCONSIN

CITY           SKY/WX    TMP DP  RH WIND       PRES   REMARKS
LA CROSSE      PTSUNNY   76  64  66 S9        29.73F
SPARTA         PTSUNNY   77  65  65 SE6       29.75F
VIROQUA        MOSUNNY   77  65  67 S6        29.76F
BOSCOBEL       PTSUNNY   79  64  60 S8G20     29.73F HX  81
PRAIRIE DU CHI LGT RAIN  74  63  67 SE8       29.72F
PLATTEVILLE    MOSUNNY   76  69  78 S12       29.77F
$$

WIZ056-057-062-063-064-067-068-272300-
SOUTH CENTRAL WISCONSIN

CITY           SKY/WX    TMP DP  RH WIND       PRES   REMARKS
REEDSBURG      LGT RAIN  71  69  96 E5        29.77F
BARABOO/DELLS  DRIZZLE   71  67  88 CALM      29.78F
LONE ROCK      NOT AVBL
MINERAL POINT  CLOUDY    75  68  78 S9        29.77F
MADISON        CLOUDY    74  66  76 VRB6      29.77S
MIDDLETON      CLOUDY    73  66  81 SW8G18    29.79F
WATERTOWN      LGT RAIN  69  69 100 S5G17     29.80R
MONROE         CLOUDY    72  64  78 S18G25    29.80S
JANESVILLE     CLOUDY    72  68  88 S12       29.80F
$$

WIZ051-052-058>065-066-070>072-272300-
SOUTHEAST WISCONSIN

CITY           SKY/WX    TMP DP  RH WIND       PRES   REMARKS
MILWAUKEE      CLOUDY    69  65  86 SE10      29.83S
WAUKESHA       PTSUNNY   72  64  78 SE12      29.83S
MILWAUKEE/TIMM CLOUDY    72  63  73 SE8       29.83S
RACINE         LGT RAIN  67  62  84 S16G26    29.86R
BURLINGTON     LGT RAIN  71  66  84 S8        29.82F
KENOSHA        CLOUDY    70  66  87 SE8       29.83S
FOND DU LAC    PTSUNNY   73  70  90 E9        29.80F
SHEBOYGAN      PTSUNNY   69  62  78 S9        29.84F
WEST BEND      CLOUDY    72  64  78 SE10      29.82F
JUNEAU         LGT RAIN  76  69  79 SE7       29.80F
$$

LSZ147-162-272300-
LAKE SUPERIOR

STATION/POSITION TIME  TEMP    WIND        PRES    WAVE
                       AIR SEA DIR/SP/G            HT/PER
                 (UTC) (F)     (DEG/KT/KT) (MB)    (FT/S)
W MID LAKE BUOY  2050   41 38   60/ 14/ 16 1012.8F   0
DEVILS ISLAND    2100   45      70/ 12/ 16 1012.4F
SAXON HARBOR     2100   46      20/  3/  5 1011.2
$$

LMZ867-665-643>646-272300-
LAKE MICHIGAN

STATION/POSITION TIME  TEMP    WIND        PRES    WAVE
                       AIR SEA DIR/SP/G            HT/PER
                 (UTC) (F)     (DEG/KT/KT) (MB)    (FT/S)
CHAMBERS ISLAND  2100   62      60/  3/  5 1011.9F
N MID LAKE BUOY  2050   49 47  290/  2/  4 1012.9R   0
NORTHPORT PIER   2100   55     120/  2/  4 1012.9R
SISTER BAY       2104   61     150/  7/  9   N/A
ALGOMA LAKESHORE 2117           70/  9/ 10   N/A
KEWAUNEE LAKESHO 2100   52      60/  2/  3 1010.9F
SHEBOYGAN LAKESH 2100   56     170/  6/  7 1011.4F
PORT WASHINGTON  2100   62     190/  2/  6 1011.2
S MID LAKE BUOY  2050   57 51  120/ 10/ 10 1011.1F   1
KENOSHA   LAKESH 2100   62     170/  8/ 18 1010.2F
$$

TC  - TEMPERATURE IN CELSIUS
VSB - VISIBILITY IN STATUTE MILES
WCI - WIND CHILL INDEX
HX  - HEAT INDEX





USA.gov is the U.S. government's official web portal to all federal, state and local government web resources and services.